Find Gorizont

NORAD ID: 20263 Int'l Des: 1989-081 Owner: MSVYAZ Country: SU operational
HEOCIRCULAR

リアルタイム位置

3D地球を読み込み中...

Gorizontについて

説明を読み込み中...

次回通過

Passes for default location (London). Set your location on the main map for personalized predictions.

高度履歴

Loading altitude history...

軌道要素

1 20263U 89081A 26121.07438404 -.00000195 00000-0 00000+0 0 9996
2 20263 12.1277 333.8126 0005326 284.6379 73.3070 1.00192680 46867
Epoch: May 1, 2026 • Age: 22 hours

現在のステータス

高度 35792.1 km
速度 3.08 km/s
衛星直下点 -7.20°S, 86.37°E
打ち上げ日 Sep 28, 1989
運用期間 36.5 years
タイプ other

技術仕様

分類 Payload
質量 2120.00 kg
乾燥質量 2000.00 kg
総質量 2120.00 kg
長さ 5.50 m
直径 3.30 m
スパン 9.50 m
形状 Cyl + 2 Pan
製造者 NPOPM
バスタイプ Gorizont
フェーズステータス In Orbit
所有者/国 MSVYAZ/SU

Most Searched